Regional Weather Roundup
Issued by NWS

Home | Current Version | Previous Version | Text Only | Print | Product List | Glossary On
Versions: 1 2 3 4 5 6 7 8 9 10 11 12 13 14 15 16 17 18 19 20 21 22 23 24 25 26 27 28 29 30 31 32 33 34 35 36 37 38 39 40 41 42 43 44 45 46 47 48 49 50
000
ASUS45 KABQ 190410
RWRNM
NEW MEXICO REGIONAL WEATHER ROUNDUP
NATIONAL WEATHER SERVICE ALBUQUERQUE NM
1000 PM MDT WED OCT 18 2017

NOTE: "FAIR" MEANS FEW OR NO CLOUDS BELOW 12,000 FEET AGL WITH NO
       SIGNIFICANT WEATHER OR OBSTRUCTIONS TO VISION.

      THIS PRODUCT IS RELEASED AS TWO VERSIONS.  ONE VERSION NEAR
      THE TOP OF THE HOUR CONTAINING PRELIMINARY DATA FROM ALBUQUERQUE
      AND OTHER STATIONS.  A FINAL VERSION WITH ADDITIONAL DATA IS
      ISSUED ABOUT 10 MINUTES AFTER THE HOUR.

NMZ501-503-504-510>518-190500-
NORTHWEST PLATEAU/NORTHCENTRAL MOUNTAINS

CITY           SKY/WX    TMP DP  RH WIND       PRES   REMARKS
FARMINGTON     FAIR      50  22  33 NE5       30.14S
LOS ALAMOS     FAIR      62  15  16 W3        30.27S
SANTA FE       FAIR      45  29  53 NE7       30.21S
TAOS           FAIR      42  16  34 N7        30.29S
ANGEL FIRE     FAIR      30  24  77 CALM      30.37R

$$
NMZ402-403-502-505>509-190500-
WESTCENTRAL MOUNTAINS/SOUTHWEST MOUNTAINS

CITY           SKY/WX    TMP DP  RH WIND       PRES   REMARKS
GALLUP         FAIR      50  22  33 NE6       30.22R
GRANTS         FAIR      47  24  40 CALM      30.24S
SILVER CITY    CLOUDY    56  44  64 NW3       30.17R

$$
NMZ407-409-411-412-190500-
SOUTHERN DESERTS

CITY           SKY/WX    TMP DP  RH WIND       PRES   REMARKS
DEMING         FAIR      67  47  48 SW6       30.11R
LAS CRUCES     FAIR      66  47  51 SE5       30.13R
HOLLOMAN AFB   FAIR      64  38  38 CALM      30.10R
ALAMOGORDO     FAIR      63  39  42 S3        30.10R
T OR C         FAIR      69  39  33 N3        30.11R

$$
NMZ519>523-190500-
CENTRAL VALLEYS/CENTRAL HIGHLANDS

CITY           SKY/WX    TMP DP  RH WIND       PRES   REMARKS
ALBUQUERQUE    MOCLDY    59  25  27 SW10      30.16R
DOUBLE EAGLE   CLEAR     48  23  37 SW5       30.19R
MORIARTY ARPT  FAIR      41  29  61 NE5       30.22F
CLINES CORNERS FAIR      51  20  29 NW8       30.25S
BELEN          FAIR      56  29  35 NW5       30.15S
SOCORRO        FAIR      60  32  34 W3        30.13R

$$
NMZ524>526-539-540-190500-
SOUTHCENTRAL MOUNTAINS

CITY           SKY/WX    TMP DP  RH WIND       PRES   REMARKS
RUIDOSO        NOT AVBL

$$
NMZ527>531-190500-
NORTHEAST HIGHLANDS/NORTHEAST PLAINS

CITY           SKY/WX    TMP DP  RH WIND       PRES   REMARKS
LAS VEGAS      FAIR      52  29  41 N6        30.25S
RATON          FAIR      50  23  34 NE8       30.22R
CLAYTON        FAIR      55  38  52 SW6       30.15S

$$
NMZ532>537-190500-
EASTCENTRAL PLAINS

CITY           SKY/WX    TMP DP  RH WIND       PRES   REMARKS
SANTA ROSA     FAIR      59  31  34 NE7       30.11S
CANNON AFB     CLEAR     58  42  55 NW5       30.10R
CLOVIS AIRPORT FAIR      53  44  71 N7        30.09S

$$
NMZ028-029-538-190500-
SOUTHEAST PLAINS

CITY           SKY/WX    TMP DP  RH WIND       PRES   REMARKS
ROSWELL        FAIR      64  49  57 S10       30.05R
ARTESIA        FAIR      64  48  55 S8        30.05S
CARLSBAD       FAIR      66  52  60 S7        30.04R
HOBBS          FAIR      61  45  55 SW8       30.08S


$$




USA.gov is the U.S. government's official web portal to all federal, state and local government web resources and services.